CW5752 Weather Reports


time (UTC)temp
F
wind
direction
speed
knots
gust
knots
rain 1hr
in
rain 24hr
in
rain mn
in
humidity
%
barometer
mb
20260503021522 48 0.0 0.0 0.00 0.03 0.03 81 1019.3
20260503020520 48 0.0 0.0 0.00 0.03 0.03 82 1019.3
20260503015522 49 0.0 0.0 0.00 0.03 0.03 80 1019.2
20260503014537 50 0.0 0.0 0.00 0.03 0.03 79 1019.0
20260503013522 50 0.0 0.0 0.00 0.03 0.03 77 1019.0
20260503012522 50 0.0 0.0 0.00 0.03 0.03 77 1019.0
20260503011542 51 0.0 0.0 0.00 0.03 0.03 76 1018.8
20260503010542 52 0.0 0.0 0.00 0.03 0.03 74 1018.7
20260503005522 52 0.0 0.0 0.00 0.03 0.03 71 1018.7
20260503004522 53 0.0 0.0 0.00 0.03 0.03 70 1018.6
20260503003517 53 0.0 0.0 0.00 0.03 0.03 69 1018.6
20260503002522 54 0.0 0.0 0.00 0.03 0.03 68 1018.5
20260503001522 55 0.0 0.9 0.00 0.03 0.03 67 1018.5
20260503000522 54 299 0.0 0.9 0.00 0.03 0.03 67 1018.5
20260502235523 54 0.0 0.0 0.00 0.03 0.03 63 1018.3
20260502234522 55 0.0 0.0 0.00 0.03 0.03 65 1018.4
20260502233537 57 299 0.0 2.6 0.00 0.03 0.03 59 1018.4
20260502232516 58 301 0.0 2.6 0.00 0.03 0.03 51 1018.4
20260502231522 58 300 0.9 2.6 0.00 0.03 0.03 53 1018.4
20260502230542 58 299 0.9 4.3 0.00 0.03 0.03 54 1018.4
20260502225522 58 299 0.9 2.6 0.00 0.03 0.03 54 1018.4
20260502224522 58 301 0.9 4.3 0.00 0.03 0.03 57 1018.3
20260502223522 58 323 0.9 3.5 0.00 0.03 0.03 51 1018.4
20260502222517 58 325 0.9 5.2 0.00 0.03 0.03 56 1018.3
20260502221522 58 296 0.9 4.3 0.00 0.03 0.03 61 1018.3
20260502220522 57 289 0.9 3.5 0.00 0.03 0.03 59 1018.4
20260502215522 57 294 0.9 3.5 0.00 0.03 0.03 64 1018.5
20260502214522 55 296 0.0 2.6 0.00 0.03 0.03 65 1018.5
20260502213522 55 296 0.0 3.5 0.00 0.03 0.03 60 1018.5
20260502212517 56 296 0.0 1.7 0.00 0.03 0.03 67 1018.6
20260502211517 54 0.0 2.6 0.01 0.03 0.03 73 1018.6
20260502210542 51 0.0 0.0 0.01 0.03 0.03 81 1018.6
20260502205522 51 0.0 1.7 0.01 0.03 0.03 81 1018.7
20260502204522 50 0.0 0.9 0.03 0.03 0.03 79 1018.9
20260502203522 50 296 0.0 4.3 0.03 0.03 0.03 77 1019.0
20260502202522 50 296 1.7 4.3 0.03 0.03 0.03 77 1019.1
20260502201517 50 297 1.7 3.5 0.02 0.02 0.02 82 1019.2
20260502200522 49 296 3.5 5.2 0.02 0.02 0.02 82 1019.2
20260502195522 49 307 4.3 7.8 0.02 0.02 0.02 81 1019.1
20260502194542 50 318 5.2 8.7 0.00 0.00 0.00 75 1018.9
20260502193522 55 320 2.6 8.7 0.00 0.00 0.00 64 1018.6
20260502192522 57 255 0.0 4.3 0.00 0.00 0.00 57 1018.2
20260502191542 58 80 0.0 5.2 0.00 0.00 0.00 60 1018.1
20260502190516 60 343 0.9 3.5 0.00 0.00 0.00 53 1018.1
20260502185522 59 0 1.7 5.2 0.00 0.00 0.00 61 1018.3
20260502184522 58 356 0.9 5.2 0.00 0.00 0.00 62 1018.3
20260502183522 58 302 0.9 7.0 0.00 0.00 0.00 72 1018.4
20260502182522 53 324 0.0 3.5 0.00 0.00 0.00 66 1018.5
20260502181522 52 0.0 1.7 0.00 0.00 0.00 71 1018.4
20260502180537 52 329 1.7 6.1 0.00 0.00 0.00 70 1018.6
20260502163523 61 329 2.6 8.7 0.00 0.00 0.00 54 1017.9
20260502162522 62 325 1.7 6.1 0.00 0.00 0.00 56 1017.8
20260502161542 59 287 0.0 2.6 0.00 0.00 0.00 52 1017.9
20260502160522 58 257 0.9 3.5 0.00 0.00 0.00 57 1017.9
20260502151521 58 74 0.0 3.5 0.00 0.00 0.00 60 1017.5
20260502150522 57 75 0.9 4.3 0.00 0.00 0.00 60 1017.4
20260502130542 50 91 0.0 4.3 0.00 0.00 0.00 78 1017.3
20260502123521 48 329 0.0 1.7 0.00 0.00 0.00 84 1017.2
20260502122536 47 329 0.0 1.7 0.00 0.00 0.00 85 1017.1
20260502121542 46 329 0.0 1.7 0.00 0.00 0.00 86 1017.1
20260502120521 46 329 0.0 1.7 0.00 0.00 0.00 86 1017.1
20260502115521 46 0.0 0.0 0.00 0.00 0.00 87 1017.1
20260502114521 45 0.0 0.0 0.00 0.00 0.00 88 1017.1
20260502113521 44 0.0 0.0 0.00 0.00 0.00 89 1017.0
20260502112536 45 0.0 0.0 0.00 0.00 0.00 90 1017.1
20260502111516 44 0.0 0.0 0.00 0.00 0.00 90 1017.0
20260502110522 43 0.0 0.0 0.00 0.00 0.00 91 1017.0
20260502105522 43 0.0 0.0 0.00 0.00 0.00 91 1016.9
20260502104521 43 0.0 0.0 0.00 0.00 0.00 91 1016.8
20260502103521 43 0.0 0.0 0.00 0.00 0.00 91 1016.8
20260502102522 43 0.0 0.0 0.00 0.00 0.00 90 1016.8
20260502101516 43 0.0 0.0 0.00 0.00 0.00 91 1016.9
20260502100522 44 0.0 0.0 0.00 0.00 0.00 90 1016.8
20260502090516 43 0.0 0.0 0.00 0.00 0.00 91 1016.7
20260502071521 43 0.0 0.0 0.00 0.00 0.00 89 1016.8
20260502070521 43 0.0 0.0 0.00 0.00 0.00 89 1016.7
20260502065517 43 0.0 0.0 0.00 0.00 0.00 88 1016.8
20260502064536 43 0.0 0.0 0.00 0.00 0.00 87 1016.7
20260502063522 43 0.0 0.0 0.00 0.00 0.00 85 1016.7
20260502062522 44 0.0 0.0 0.00 0.00 0.00 86 1016.7
20260502061521 44 0.0 0.0 0.00 0.00 0.00 85 1016.7
20260502060521 44 0.0 0.0 0.00 0.00 0.00 83 1016.7
20260502055522 44 0.0 0.0 0.00 0.00 0.00 83 1016.8
20260502054516 44 0.0 0.0 0.00 0.00 0.00 83 1016.8
20260502053521 44 0.0 0.0 0.00 0.00 0.00 82 1016.8
20260502052522 44 0.0 0.0 0.00 0.00 0.00 83 1016.9
20260502051542 44 0.0 0.0 0.00 0.00 0.00 83 1016.8
20260502050521 45 0.0 0.0 0.00 0.00 0.00 82 1016.8
20260502045540 45 0.0 0.0 0.00 0.00 0.00 82 1016.8
20260502044540 45 0.0 0.0 0.00 0.00 0.00 83 1016.8
20260502043540 46 0.0 0.0 0.00 0.00 0.00 83 1016.9
20260502042520 46 0.0 0.0 0.00 0.00 0.00 83 1017.0
20260502041641 46 0.0 0.0 0.00 0.00 0.00 82 1017.0
20260502040522 46 0.0 0.0 0.00 0.00 0.00 82 1017.1
20260502035535 47 0.0 0.0 0.00 0.00 0.00 81 1017.1
20260502034521 47 0.0 0.0 0.00 0.00 0.00 78 1017.1
20260502033523 47 0.0 0.0 0.00 0.00 0.00 80 1017.2
20260502032522 47 0.0 0.0 0.00 0.00 0.00 78 1017.2
20260502031522 48 0.0 0.0 0.00 0.00 0.00 77 1017.3
20260502030517 49 0.0 0.0 0.00 0.00 0.00 75 1017.5
20260502025522 49 0.0 0.0 0.00 0.00 0.00 74 1017.5
20260502024522 50 0.0 0.0 0.00 0.00 0.00 75 1017.4
20260502023522 50 0.0 0.0 0.00 0.00 0.00 75 1017.4
20260502022522 50 0.0 0.0 0.00 0.00 0.00 73 1017.3